Torna al catalogo

STARLINK-4776

AttivoComunicazioniVLEO
NORAD 53837·PAYLOAD·🇺🇸 United States

Lanciato Sep 19, 2022 da Cape Canaveral Space Force Station

Loading…

Prossimi Passaggi (prossime 24 ore)

TLE

AggiornatoSource: CelesTrak SupGP

Epoca: Sep 15, 2026, 01:36 UTC

1 53837C 22114V   26258.06715278 -.00028230  00000+0 -17707-2 0  2583
2 53837  53.1590 173.0530 0001418  85.0765 326.1129 15.08842402    14

Traccia STARLINK-4776 in tempo reale con AllMySat

Download on the App Store